SCP
5 6 9 13 13 11 10 9 9 8 8 6 6 5 5 6 6 7 7 7 8 8 7 6 5 5 4 4 4 3 2 2 2 2 2 2 2 2 3 3 3 3 3
5 6 10 14 13 11 10 8 8 7 7 6 6 5 5 5 6 6 6 6 7 7 7 7 5 4 3 3 3 3 2 2 2 2 2 2 2 2 2 2 2 3 3
4 5 9 12 11 10 9 8 7 7 6 6 6 5 5 5 5 5 5 5 5 5 5 6 5 3 3 3 3 3 2 2 2 2 1 1 2 2 2 2 3 3 3
2 4 6 7 7 8 8 8 9 8 7 6 5 4 4 4 4 4 4 4 4 3 4 4 4 3 3 2 3 3 3 2 2 2 2 2 2 2 2 2 3 3 3
2 3 4 6 7 7 8 9 10 10 8 7 5 4 4 3 3 3 3 3 3 3 3 3 3 3 3 3 3 3 3 3 2 2 2 2 2 2 2 2 3 3 3
2 3 5 7 8 8 8 9 11 11 10 8 6 5 4 3 3 3 3 3 3 4 4 3 4 4 5 5 5 5 4 4 3 2 2 3 3 2 2 2 2 2 3
2 3 4 6 8 8 8 8 10 12 10 8 7 6 5 4 4 3 3 3 3 4 3 3 4 4 5 5 5 5 4 4 3 3 3 3 3 2 2 2 2 2 2
2 2 3 4 6 8 9 8 9 10 9 8 8 8 7 5 4 3 3 3 3 3 3 4 4 4 5 5 4 4 4 3 3 2 3 3 2 2 2 2 2 2 2
2 2 2 4 5 8 9 8 8 8 8 8 8 8 7 5 4 4 3 3 4 4 4 4 5 5 5 4 3 3 3 3 2 2 2 2 2 2 3 3 2 2 1
2 2 3 3 4 6 7 7 8 9 9 8 7 6 6 6 6 4 3 3 3 3 4 4 4 4 4 3 3 3 2 2 2 2 2 2 2 3 3 3 2 2 1
2 3 2 3 4 4 4 6 10 12 11 9 7 6 5 6 7 5 3 3 3 3 3 3 3 3 3 2 2 2 2 1 1 1 1 1 2 3 3 3 2 2 2
2 2 2 2 3 3 4 8 13 14 11 9 7 6 6 6 6 4 3 3 3 3 3 3 3 3 2 2 2 2 1 1 1 1 1 1 1 2 2 3 3 2 2
2 2 2 3 3 4 5 10 14 14 10 8 6 6 6 6 6 4 3 3 3 3 3 3 3 2 2 2 2 2 1 1 1 1 1 1 1 2 2 3 3 3 2
2 2 3 4 4 4 5 7 9 10 9 7 6 6 6 6 5 4 3 2 2 2 2 2 2 2 2 2 2 1 1 1 1 1 1 1 1 1 2 2 3 3 2
3 3 4 5 5 4 3 4 5 7 8 8 7 6 5 5 4 4 3 2 2 2 2 2 2 1 1 1 1 1 0 1 1 1 1 1 1 1 1 2 2 2 2
4 5 5 5 4 3 3 3 4 6 8 9 7 5 4 3 3 3 3 2 2 2 2 2 1 1 1 1 0 0 0 0 1 1 1 1 1 1 1 1 1 1 2
6 5 4 4 4 3 2 2 3 5 7 8 6 5 4 3 3 3 3 2 2 2 2 2 1 1 1 1 0 0 0 0 1 1 1 1 1 1 1 1 1 1 1
5 4 3 3 3 3 3 2 3 4 5 6 5 4 3 3 3 3 3 2 2 2 3 2 2 2 1 1 0 0 0 0 0 1 1 1 1 1 1 1 1 1 1
3 2 3 3 4 3 3 3 3 3 4 4 4 4 3 3 3 3 3 2 3 3 3 3 2 2 1 0 0 0 0 0 0 1 1 1 1 0 0 1 1 2 2
2 2 2 3 4 3 3 3 3 3 3 4 4 4 3 3 2 2 2 2 3 3 3 3 2 2 1 1 0 0 0 0 0 1 1 1 0 0 0 1 1 1 2
2 2 3 3 3 3 3 3 2 2 2 3 3 3 3 2 2 2 2 2 2 2 2 2 2 2 2 1 0 0 0 0 0 1 1 0 0 0 0 0 1 1 1
1 2 2 3 3 3 3 3 3 2 2 2 2 2 3 3 3 3 3 2 2 2 2 2 2 2 2 1 0 0 0 0 0 0 0 0 0 0 0 0 0 1 1
1 1 1 2 2 2 3 3 3 3 3 2 3 3 3 4 4 5 4 3 2 2 1 1 1 2 1 1 0 0 0 0 0 0 0 0 0 0 0 0 0 0 1
1 1 1 1 2 2 2 2 3 4 4 4 5 5 4 4 5 6 6 5 3 2 1 1 1 1 1 1 1 0 0 0 0 0 0 0 0 0 0 0 0 0 1
1 1 1 1 1 2 2 2 3 4 5 5 5 5 4 4 5 5 5 5 4 2 1 1 1 1 1 1 0 0 0 0 0 0 0 0 0 0 0 0 0 0 0
1 1 1 1 1 2 2 2 3 4 5 6 5 4 3 3 4 4 4 4 3 2 1 0 0 1 1 0 0 0 0 0 0 0 0 0 0 0 0 0 0 0 0
Wind_Speed
5 5 4 3 4 5 4 4 4 4 3 2 2 2 1 1 1 1 2 0 0 0 0 1 1 1 1 1 2 2 3 2 1 3 3 3 3 2 2 2 1 2 3
4 5 5 4 4 5 5 4 4 4 3 2 2 2 2 1 1 1 1 1 1 1 1 1 0 1 1 1 2 2 2 3 1 1 2 2 2 2 4 3 3 4 3
3 3 4 4 4 4 4 5 4 4 3 3 2 1 1 0 1 1 1 1 1 1 1 1 1 1 1 1 2 1 2 3 2 1 1 2 1 2 2 3 3 3 2
3 4 4 3 3 5 5 5 5 4 3 3 2 2 2 1 1 1 1 2 2 1 1 1 2 1 1 1 2 1 2 3 3 2 2 2 2 2 2 2 2 2 3
3 4 5 5 4 4 5 5 5 5 4 3 3 2 1 1 1 1 2 2 1 1 1 1 1 1 1 1 1 1 2 2 2 2 2 3 2 2 2 3 2 2 3
2 3 4 5 4 4 4 5 5 4 4 3 3 2 2 1 1 2 1 1 1 1 1 1 1 1 1 1 1 1 2 2 3 3 2 2 2 2 2 3 3 3 3
3 4 4 4 4 4 4 4 5 4 4 3 2 2 2 2 2 2 1 1 0 0 0 1 1 1 1 1 1 1 2 2 3 3 3 3 3 3 2 2 3 4 3
3 3 3 3 4 4 4 3 4 4 3 3 2 2 2 2 1 1 1 0 0 0 0 1 1 1 1 1 1 2 2 2 2 4 3 3 3 2 2 1 2 3 3
3 3 2 2 2 4 4 3 3 3 3 2 2 2 2 1 1 1 1 0 0 1 1 1 1 1 1 1 1 1 2 2 2 3 3 2 2 2 2 2 2 2 4
4 4 2 3 3 3 4 4 4 3 3 3 2 2 1 1 1 1 0 1 1 1 1 1 1 1 1 2 1 2 1 2 2 2 2 3 2 2 2 2 2 2 3
6 5 4 4 3 3 3 3 4 3 2 2 2 2 2 2 2 1 1 1 1 1 1 1 1 1 2 2 1 2 2 2 2 3 2 2 2 2 2 2 2 2 2
4 5 5 4 3 2 3 2 3 3 2 2 2 2 2 2 1 1 1 1 1 1 1 1 1 2 1 1 1 2 2 2 2 3 2 3 2 2 2 2 3 2 3
3 3 4 4 3 2 2 2 2 2 2 2 2 2 2 2 1 1 1 1 1 1 2 1 1 1 1 1 1 2 2 2 2 2 2 2 2 2 2 3 3 3 4
4 2 2 3 3 2 2 2 2 2 2 2 2 2 2 1 1 2 2 2 1 1 1 1 0 0 1 2 2 2 2 2 2 2 2 2 1 2 3 3 3 3 4
4 3 3 3 2 2 1 1 1 2 2 2 2 2 2 2 1 1 1 1 1 1 0 0 0 0 0 2 3 3 2 2 2 3 2 2 1 1 2 3 3 4 3
3 3 3 3 2 1 1 1 1 2 2 2 2 2 2 2 1 1 1 0 1 1 1 0 0 1 1 2 2 3 3 2 3 3 3 2 1 2 4 5 5 4 4
3 2 3 2 1 1 0 1 1 1 2 1 1 1 1 1 1 1 1 0 0 0 0 1 0 1 2 2 2 2 2 3 2 3 3 4 2 2 2 3 4 5 6
2 2 2 1 0 0 1 1 1 2 2 2 2 2 2 1 1 1 1 0 1 1 1 1 0 1 0 1 0 2 2 3 3 3 3 2 2 3 3 3 3 3 3
2 2 1 1 1 0 0 1 1 2 2 2 2 1 1 1 1 1 1 1 1 1 1 1 1 1 1 1 1 1 2 3 3 3 3 2 1 1 2 2 3 4 3
2 1 1 1 2 0 1 1 2 2 1 1 1 1 1 1 1 1 1 1 1 1 1 1 2 2 1 2 3 3 2 3 3 3 2 2 1 1 1 2 3 4 4
1 1 1 1 1 1 1 1 2 1 1 1 1 0 1 1 2 1 1 1 1 1 2 1 1 2 2 3 4 4 3 3 4 3 2 1 1 2 3 3 4 5 5
1 1 1 0 0 1 1 1 1 1 1 1 1 0 1 2 1 2 2 2 2 2 3 2 2 2 2 3 4 5 6 5 3 4 3 1 3 4 6 5 6 8 6
1 1 0 0 0 1 1 1 1 1 1 1 1 1 1 1 1 2 3 2 3 2 2 2 3 2 2 3 5 6 7 7 4 4 5 5 7 7 6 7 8 6 4
0 0 1 1 1 1 1 1 1 1 2 2 2 2 2 2 2 2 2 2 2 3 3 2 2 1 1 1 1 2 3 4 4 5 6 7 8 7 6 5 4 4 4
0 1 2 2 2 2 1 1 2 2 2 2 2 2 3 2 1 1 1 2 1 2 2 1 1 1 1 1 1 1 2 2 2 3 3 3 3 3 3 3 3 3 2
1 1 2 3 3 2 2 2 2 2 2 2 2 3 3 2 2 2 2 1 2 2 2 2 2 1 1 2 2 3 2 2 2 2 4 4 3 3 2 2 2 2 2
Wind_Direction
156 140 140 135 127 127 129 133 143 146 148 147 159 157 157 156 149 128 113 130 216 207 183 284 256 297 314 306 314 312 297 294 302 295 289 266 237 225 201 212 220 225 215
142 146 152 151 142 142 147 148 149 149 158 147 163 179 178 184 158 149 167 179 216 252 215 250 264 292 287 288 292 296 295 291 281 279 286 283 263 256 225 205 208 223 220
151 145 154 148 152 155 158 156 154 153 159 157 161 154 142 158 131 154 164 194 214 214 263 232 269 266 266 265 271 311 296 292 292 269 273 291 289 291 248 227 217 215 215
183 167 151 150 160 164 159 156 151 155 161 163 166 173 181 191 213 211 192 206 215 217 219 212 243 258 283 286 279 329 298 290 298 287 255 248 265 280 307 285 250 234 224
181 167 157 164 174 169 155 147 145 154 157 163 169 172 205 231 220 221 202 213 194 187 222 195 213 206 232 249 269 295 284 291 296 300 302 291 279 259 264 288 280 264 242
104 140 148 153 157 157 149 140 137 146 155 165 172 168 203 226 230 239 226 211 177 164 177 183 198 192 228 252 266 277 269 280 295 298 299 299 298 295 277 284 288 277 265
148 148 149 148 143 146 148 143 139 145 156 163 164 172 201 215 213 227 236 202 163 111 222 271 218 212 235 253 271 270 272 275 286 287 287 286 282 282 281 286 291 287 277
152 149 152 151 154 147 134 131 138 146 158 161 160 175 201 218 217 221 241 209 122 129 202 250 261 278 277 272 262 271 267 274 282 290 290 282 282 291 280 266 280 295 295
140 130 142 141 128 123 119 126 137 137 143 149 163 184 192 186 195 225 199 99 356 260 233 249 266 294 285 278 265 264 273 290 277 278 289 290 290 288 299 288 271 279 292
126 112 112 107 103 104 104 118 124 136 153 165 173 176 178 168 176 159 92 168 234 255 245 260 243 243 274 278 282 286 290 295 295 279 282 287 290 311 307 294 289 271 276
135 130 126 120 133 120 121 141 130 136 163 176 169 156 160 167 154 168 204 196 227 246 245 246 253 256 266 276 289 277 286 297 292 291 292 295 301 309 299 304 296 289 282
123 132 134 135 134 127 137 155 144 150 159 159 154 148 142 152 157 185 186 198 234 257 247 235 263 263 278 289 297 302 323 311 297 299 302 302 303 307 301 304 298 291 277
118 126 124 125 119 112 116 142 155 155 164 156 160 160 166 171 183 198 192 199 223 250 250 249 255 314 345 340 312 294 298 296 301 308 305 304 316 318 308 299 301 298 302
122 121 130 129 129 131 147 167 172 177 176 166 164 167 162 170 199 213 211 216 226 250 257 284 319 10 1 360 343 329 316 314 322 317 305 307 318 313 307 304 309 302 299
129 150 144 122 129 129 149 166 163 166 163 160 162 164 165 175 203 229 237 236 238 253 278 345 326 318 30 25 360 338 330 327 320 316 308 304 319 324 300 306 313 308 299
115 117 116 118 125 129 155 179 169 160 171 173 169 174 178 180 197 209 219 281 326 1 18 355 350 9 27 54 37 8 345 328 315 311 310 292 263 273 266 270 281 288 285
97 94 107 118 141 170 198 198 200 174 171 179 183 171 180 179 188 210 158 165 211 301 292 304 80 78 48 64 49 4 322 306 300 297 299 304 326 323 310 288 284 279 270
88 90 99 111 145 173 191 203 212 199 185 180 181 188 193 168 162 157 156 197 196 199 210 267 69 102 9 132 56 328 292 287 285 284 283 290 307 335 329 311 305 292 288
81 82 111 143 128 278 253 223 233 223 201 192 196 192 176 166 175 183 184 204 195 202 217 210 186 177 236 202 236 282 292 289 279 271 274 276 286 338 346 320 310 307 306
101 85 133 132 120 137 260 239 251 235 221 219 217 191 166 180 211 197 174 178 201 233 236 216 202 200 201 191 213 232 271 285 284 273 255 257 269 295 307 305 304 301 303
112 97 106 113 135 170 191 226 245 249 250 244 245 208 159 189 203 171 167 180 204 214 239 235 224 220 208 197 210 220 255 282 295 295 286 262 230 261 270 275 270 274 290
110 94 90 69 100 172 202 236 246 265 279 263 248 230 183 229 212 166 186 199 210 221 231 232 243 232 204 209 219 223 237 262 289 295 299 295 268 271 272 268 262 273 286
80 91 119 138 161 202 203 230 240 231 231 239 243 218 210 230 206 196 194 206 211 226 233 230 235 234 216 211 216 221 237 250 257 284 296 293 271 271 265 256 259 265 265
90 2 269 250 250 239 233 229 216 214 215 217 217 215 217 219 230 232 221 218 220 237 241 245 256 263 228 212 206 225 242 256 264 278 286 279 267 261 260 273 260 240 243
281 254 269 265 258 237 215 218 223 215 222 225 222 234 237 233 240 236 258 240 240 236 254 278 290 283 293 296 255 262 269 284 305 306 280 268 267 263 253 249 251 249 247
279 266 269 263 261 252 225 223 233 222 227 235 235 241 237 233 231 221 233 272 238 218 208 214 238 288 228 228 261 273 286 291 301 287 273 277 279 284 283 286 291 287 282